Location: Unspecified
(0.0000°N, 0.0000°E)
Time: 06:09:27
(UTC+01:00)

Tiros 1 despin weight - All Passes

Search period start: 26 October 2014 00:00
Search period end: 04 November 2014 23:00
Orbit: 601 x 652 km, 48.2° (Epoch: 24 October)

Date Brightness Start Highest point End Pass type
(mag) Time Alt. Az. Time Alt. Az. Time Alt. Az.
26 Oct - 04:52:39 10° SSW 04:57:22 71° SE 05:02:03 10° NE visible
26 Oct - 17:02:27 10° NW 17:06:50 66° SW 17:11:15 10° SSE daylight
27 Oct - 03:31:51 10° S 03:34:51 17° SE 03:37:50 10° E visible
27 Oct - 05:12:03 10° WSW 05:16:28 39° NW 05:20:52 10° NNE visible
27 Oct - 15:40:47 10° N 15:44:25 25° NE 15:48:04 10° ESE daylight
27 Oct - 17:22:31 10° WNW 17:25:58 22° SW 17:29:25 10° S daylight
28 Oct - 03:49:29 10° SSW 03:54:00 45° SE 03:58:30 10° ENE visible
28 Oct - 05:33:01 10° W 05:35:37 15° NW 05:38:13 10° NNW visible
28 Oct - 15:59:06 10° NW 16:03:31 76° NE 16:07:57 10° SE daylight
29 Oct - 02:30:29 10° SE 02:31:25 11° SE 02:32:22 10° ESE night (unlit)
29 Oct - 04:08:25 10° SW 04:13:05 62° NW 04:17:45 10° NNE visible
29 Oct - 14:38:17 10° N 14:41:03 16° NE 14:43:48 10° E daylight
29 Oct - 16:18:34 10° WNW 16:22:36 34° SW 16:26:38 10° SSE daylight
30 Oct - 02:46:31 10° S 02:50:36 29° SE 02:54:40 10° ENE night (unlit)
30 Oct - 04:28:31 10° WSW 04:32:11 22° NW 04:35:51 10° N night (unlit)
30 Oct - 14:55:54 10° NNW 15:00:09 46° NE 15:04:24 10° SE daylight
30 Oct - 16:39:56 10° WSW 16:41:44 12° SW 16:43:32 10° SSW daylight
31 Oct - 03:04:57 10° SW 03:09:40 83° SE 03:14:24 10° NE night (unlit)
31 Oct - 13:37:08 10° NE 13:37:36 10° NE 13:38:04 10° NE daylight
31 Oct - 15:14:51 10° NW 15:19:12 56° SW 15:23:33 10° SSE daylight
01 Nov - 01:43:49 10° S 01:47:08 19° SE 01:50:28 10° E night (unlit)
01 Nov - 03:24:28 10° WSW 03:28:44 34° NW 03:33:00 10° NNE night (unlit)
01 Nov - 13:52:52 10° N 13:56:44 29° NE 14:00:36 10° ESE daylight
01 Nov - 15:35:07 10° W 15:38:17 19° SW 15:41:27 10° S daylight
02 Nov - 02:01:39 10° SSW 02:06:13 52° SE 02:10:48 10° NE night (unlit)
02 Nov - 03:45:50 10° WNW 03:47:51 13° NW 03:49:53 10° NNW night (unlit)
02 Nov - 14:11:20 10° NW 14:15:47 89° NE 14:20:14 10° SE daylight
03 Nov - 00:41:46 10° SSE 00:43:38 12° SE 00:45:30 10° ESE night (unlit)
03 Nov - 02:20:40 10° SW 02:25:15 53° NW 02:29:51 10° NNE night (unlit)
03 Nov - 12:50:07 10° N 12:53:16 19° NE 12:56:25 10° E daylight
03 Nov - 14:30:55 10° WNW 14:34:49 30° SW 14:38:42 10° S daylight
04 Nov - 00:58:31 10° SSW 01:02:44 33° SE 01:06:57 10° ENE night (unlit)
04 Nov - 02:40:57 10° W 02:44:19 19° NW 02:47:41 10° N night (unlit)
04 Nov - 13:07:57 10° NNW 13:12:20 54° NE 13:16:40 10° SE daylight
04 Nov - 14:53:05 10° WSW 14:53:55 10° SW 14:54:44 10° SW daylight
